,,Stat6,,Stat2,,Stat8,,Stat9,,Stat10,,Wind1,,Wind1,
time,status,PA1M_AVG,status,PR1M_SUM,status,RH1M_AVG,status,SR1M_AVG,status,TA1M_AVG,status,W1dAve1m,status,W1sAve1m,
2007-10-20, 00:00:00,VALID,917.751,VALID,0,VALID,100,VALID,-0.101885,VALID,20.1057,VALID,59,VALID,0,
2007-10-20, 00:01:00,VALID,917.751,VALID,0,VALID,100,VALID,-0.101885,VALID,20.1189,VALID,59,VALID,0,
2007-10-20, 00:02:00,VALID,917.75,VALID,0,VALID,100,VALID,-0.101885,VALID,20.1127,VALID,59,VALID,0,
2007-10-20, 00:03:00,VALID,917.749,VALID,0,VALID,100,VALID,-0.0509425,VALID,20.0987,VALID,59,VALID,0,
2007-10-20, 00:04:00,VALID,917.742,VALID,0,VALID,100,VALID,-0.101885,VALID,20.0794,VALID,59,VALID,0,
2007-10-20, 00:05:00,VALID,917.746,VALID,0,VALID,100,VALID,-0.0849042,VALID,20.0859,VALID,59,VALID,0,
2007-10-20, 00:06:00,VALID,917.731,VALID,0,VALID,100,VALID,-0.0509425,VALID,20.0762,VALID,59,VALID,0,
2007-10-20, 00:07:00,VALID,917.718,VALID,0,VALID,100,VALID,-0.101885,VALID,20.0762,VALID,59,VALID,0,
2007-10-20, 00:08:00,VALID,917.699,VALID,0,VALID,100,VALID,-0.118866,VALID,20.0667,VALID,58,VALID,0.0704901,
2007-10-20, 00:09:00,VALID,917.683,VALID,0,VALID,100,VALID,-0.0849042,VALID,20.0894,VALID,57,VALID,0.0024858,
2007-10-20, 00:10:00,VALID,917.672,VALID,0,VALID,100,VALID,-0.0849042,VALID,20.0794,VALID,57,VALID,0.0383003,
2007-10-20, 00:11:00,VALID,917.644,VALID,0,VALID,100,VALID,-0.0849042,VALID,20.1059,VALID,57,VALID,0,
2007-10-20, 00:12:00,VALID,917.611,VALID,0,VALID,100,VALID,-0.118866,VALID,20.1256,VALID,57,VALID,0.047476,
2007-10-20, 00:13:00,VALID,917.608,VALID,0,VALID,100,VALID,-0.118866,VALID,20.1089,VALID,57,VALID,0.371466,
2007-10-20, 00:14:00,VALID,917.609,VALID,0,VALID,100,VALID,-0.101885,VALID,20.1062,VALID,57,VALID,0.382303,
2007-10-20, 00:15:00,VALID,917.624,VALID,0,VALID,100,VALID,-0.101885,VALID,20.0992,VALID,57,VALID,0.0639881,
2007-10-20, 00:16:00,VALID,917.638,VALID,0,VALID,100,VALID,-0.101885,VALID,20.1094,VALID,57,VALID,0,
2007-10-20, 00:17:00,VALID,917.641,VALID,0,VALID,100,VALID,-0.101885,VALID,20.1057,VALID,57,VALID,0,
2007-10-20, 00:18:00,VALID,917.668,VALID,0,VALID,100,VALID,-0.0849042,VALID,20.0992,VALID,57,VALID,0,
2007-10-20, 00:19:00,VALID,917.675,VALID,0,VALID,100,VALID,-0.118866,VALID,20.0962,VALID,57,VALID,0,
2007-10-20, 00:20:00,VALID,917.669,VALID,0,VALID,100,VALID,-0.0679233,VALID,20.0862,VALID,57,VALID,0,
2007-10-20, 00:21:00,VALID,917.664,VALID,0,VALID,100,VALID,-0.0849042,VALID,20.0792,VALID,57,VALID,0,
2007-10-20, 00:22:00,VALID,917.645,VALID,0,VALID,100,VALID,-0.0679233,VALID,20.0467,VALID,57,VALID,0,
2007-10-20, 00:23:00,VALID,917.621,VALID,0,VALID,100,VALID,-0.101885,VALID,20.0076,VALID,57,VALID,0,
2007-10-20, 00:24:00,VALID,917.611,VALID,0,VALID,100,VALID,-0.0339617,VALID,19.9719,VALID,57,VALID,0,
2007-10-20, 00:25:00,VALID,917.594,VALID,0,VALID,100,VALID,-0.0169808,VALID,19.9816,VALID,57,VALID,0,
2007-10-20, 00:26:00,VALID,917.578,VALID,0,VALID,100,VALID,-0.101885,VALID,19.9689,VALID,57,VALID,0,
2007-10-20, 00:27:00,VALID,917.542,VALID,0,VALID,100,VALID,-0.0679233,VALID,19.9529,VALID,57,VALID,0,
2007-10-20, 00:28:00,VALID,917.538,VALID,0,VALID,100,VALID,-0.101885,VALID,19.9661,VALID,57,VALID,0,
2007-10-20, 00:29:00,VALID,917.516,VALID,0,VALID,100,VALID,-0.0849042,VALID,19.9661,VALID,57,VALID,0,
2007-10-20, 00:30:00,VALID,917.505,VALID,0,VALID,100,VALID,-0.101885,VALID,19.9529,VALID,57,VALID,0.181141,
2007-10-20, 00:31:00,VALID,917.488,VALID,0,VALID,100,VALID,-0.101885,VALID,19.9564,VALID,57,VALID,0.591704,
2007-10-20, 00:32:00,VALID,917.47,VALID,0,VALID,100,VALID,-0.101885,VALID,19.9279,VALID,57,VALID,0.476215,
2007-10-20, 00:33:00,VALID,917.457,VALID,0,VALID,100,VALID,-0.101885,VALID,19.888,VALID,61,VALID,0.679688,
2007-10-20, 00:34:00,VALID,917.432,VALID,0,VALID,100,VALID,-0.101885,VALID,19.9015,VALID,76,VALID,0.518864,
2007-10-20, 00:35:00,VALID,917.41,VALID,0,VALID,100,VALID,-0.101885,VALID,19.9045,VALID,73,VALID,0.332849,
2007-10-20, 00:36:00,VALID,917.403,VALID,0,VALID,100,VALID,-0.0849042,VALID,19.8915,VALID,52,VALID,0.560501,
2007-10-20, 00:37:00,VALID,917.396,VALID,0,VALID,100,VALID,-0.0509425,VALID,19.8775,VALID,52,VALID,0.144622,
2007-10-20, 00:38:00,VALID,917.387,VALID,0,VALID,100,VALID,-0.0169808,VALID,19.8745,VALID,52,VALID,0.00247713,
2007-10-20, 00:39:00,VALID,917.374,VALID,0,VALID,100,VALID,0.0169808,VALID,19.871,VALID,52,VALID,0,
2007-10-20, 00:40:00,VALID,917.368,VALID,0,VALID,100,VALID,0,VALID,19.8773,VALID,52,VALID,0,
2007-10-20, 00:41:00,VALID,917.365,VALID,0,VALID,100,VALID,-0.0169808,VALID,19.8872,VALID,52,VALID,0,
2007-10-20, 00:42:00,VALID,917.344,VALID,0,VALID,100,VALID,-0.0679233,VALID,19.8808,VALID,52,VALID,0,
2007-10-20, 00:43:00,VALID,917.331,VALID,0,VALID,100,VALID,-0.0169808,VALID,19.8843,VALID,52,VALID,0,
2007-10-20, 00:44:00,VALID,917.332,VALID,0,VALID,100,VALID,-0.0509425,VALID,19.8708,VALID,52,VALID,0,
2007-10-20, 00:45:00,VALID,917.303,VALID,0,VALID,100,VALID,-0.0679233,VALID,19.8775,VALID,52,VALID,0,
2007-10-20, 00:46:00,VALID,917.305,VALID,0,VALID,100,VALID,-0.0169808,VALID,19.8902,VALID,52,VALID,0,
2007-10-20, 00:47:00,VALID,917.297,VALID,0,VALID,100,VALID,-0.0169808,VALID,19.9005,VALID,52,VALID,0,
2007-10-20, 00:48:00,VALID,917.287,VALID,0,VALID,100,VALID,-0.0169808,VALID,19.9135,VALID,52,VALID,0,
2007-10-20, 00:49:00,VALID,917.272,VALID,0,VALID,100,VALID,-0.0509425,VALID,19.907,VALID,52,VALID,0,
2007-10-20, 00:50:00,VALID,917.254,VALID,0,VALID,100,VALID,-0.0339617,VALID,19.884,VALID,52,VALID,0,
2007-10-20, 00:51:00,VALID,917.237,VALID,0,VALID,100,VALID,-0.0169808,VALID,19.8905,VALID,52,VALID,0,
2007-10-20, 00:52:00,VALID,917.233,VALID,0,VALID,100,VALID,-0.0509425,VALID,19.8972,VALID,52,VALID,0,
2007-10-20, 00:53:00,VALID,917.223,VALID,0,VALID,100,VALID,-0.0339617,VALID,19.8937,VALID,52,VALID,0,
2007-10-20, 00:54:00,VALID,917.233,VALID,0,VALID,100,VALID,-0.0169808,VALID,19.8905,VALID,52,VALID,0,
2007-10-20, 00:55:00,VALID,917.225,VALID,0,VALID,100,VALID,-0.0849042,VALID,19.894,VALID,52,VALID,0,
2007-10-20, 00:56:00,VALID,917.231,VALID,0,VALID,100,VALID,-0.0339617,VALID,19.887,VALID,52,VALID,0,
2007-10-20, 00:57:00,VALID,917.248,VALID,0,VALID,100,VALID,-0.0679233,VALID,19.8678,VALID,52,VALID,0,
2007-10-20, 00:58:00,VALID,917.247,VALID,0,VALID,100,VALID,-0.0509425,VALID,19.868,VALID,52,VALID,0,
2007-10-20, 00:59:00,VALID,917.269,VALID,0,VALID,100,VALID,-0.0339617,VALID,19.8575,VALID,52,VALID,0,
2007-10-20, 01:00:00,VALID,917.277,VALID,0,VALID,100,VALID,-0.0169808,VALID,19.871,VALID,52,VALID,0,
2007-10-20, 01:01:00,VALID,917.274,VALID,0,VALID,100,VALID,-0.0339617,VALID,19.8481,VALID,52,VALID,0,
2007-10-20, 01:02:00,VALID,917.291,VALID,0,VALID,100,VALID,-0.0169808,VALID,19.8316,VALID,52,VALID,0,
2007-10-20, 01:03:00,VALID,917.302,VALID,0,VALID,100,VALID,-0.0339617,VALID,19.8288,VALID,52,VALID,0,
2007-10-20, 01:04:00,VALID,917.316,VALID,0,VALID,100,VALID,-0.0339617,VALID,19.8086,VALID,52,VALID,0,
2007-10-20, 01:05:00,VALID,917.316,VALID,0,VALID,100,VALID,0.0339617,VALID,19.7889,VALID,52,VALID,0,
2007-10-20, 01:06:00,VALID,917.31,VALID,0,VALID,100,VALID,-0.0169808,VALID,19.7894,VALID,52,VALID,0,
2007-10-20, 01:07:00,VALID,917.303,VALID,0,VALID,100,VALID,-0.0169808,VALID,19.7857,VALID,52,VALID,0,
2007-10-20, 01:08:00,VALID,917.302,VALID,0,VALID,100,VALID,-0.0169808,VALID,19.7892,VALID,52,VALID,0,
2007-10-20, 01:09:00,VALID,917.27,VALID,0,VALID,100,VALID,0,VALID,19.7799,VALID,52,VALID,0,
2007-10-20, 01:10:00,VALID,917.266,VALID,0,VALID,100,VALID,-0.0339617,VALID,19.7737,VALID,52,VALID,0,
2007-10-20, 01:11:00,VALID,917.245,VALID,0,VALID,100,VALID,-0.0679233,VALID,19.7674,VALID,52,VALID,0,
2007-10-20, 01:12:00,VALID,917.237,VALID,0,VALID,100,VALID,-0.0339617,VALID,19.7512,VALID,52,VALID,0,
2007-10-20, 01:13:00,VALID,917.224,VALID,0,VALID,100,VALID,-0.0339617,VALID,19.7245,VALID,52,VALID,0,
2007-10-20, 01:14:00,VALID,917.221,VALID,0,VALID,100,VALID,-0.0339617,VALID,19.7253,VALID,52,VALID,0,
2007-10-20, 01:15:00,VALID,917.212,VALID,0,VALID,100,VALID,-0.0169808,VALID,19.6988,VALID,28,VALID,0,
2007-10-20, 01:16:00,VALID,917.203,VALID,0,VALID,100,VALID,-0.0339617,VALID,19.6828,VALID,5,VALID,0,
2007-10-20, 01:17:00,VALID,917.203,VALID,0,VALID,100,VALID,-0.0169808,VALID,19.6761,VALID,5,VALID,0,
2007-10-20, 01:18:00,VALID,917.211,VALID,0,VALID,100,VALID,0,VALID,19.6661,VALID,5,VALID,0,
2007-10-20, 01:19:00,VALID,917.213,VALID,0,VALID,100,VALID,0,VALID,19.6561,VALID,5,VALID,0,
2007-10-20, 01:20:00,VALID,917.213,VALID,0,VALID,100,VALID,-0.0679233,VALID,19.6569,VALID,5,VALID,0,
2007-10-20, 01:21:00,VALID,917.204,VALID,0,VALID,100,VALID,-0.0509425,VALID,19.6504,VALID,6,VALID,0,
2007-10-20, 01:22:00,VALID,917.199,VALID,0,VALID,100,VALID,0,VALID,19.6374,VALID,5,VALID,0,
2007-10-20, 01:23:00,VALID,917.208,VALID,0,VALID,100,VALID,0,VALID,19.611,VALID,5,VALID,0,
2007-10-20, 01:24:00,VALID,917.211,VALID,0,VALID,100,VALID,-0.0169808,VALID,19.6045,VALID,5,VALID,0,
2007-10-20, 01:25:00,VALID,917.212,VALID,0,VALID,100,VALID,-0.0339617,VALID,19.5977,VALID,5,VALID,0,
2007-10-20, 01:26:00,VALID,917.208,VALID,0,VALID,100,VALID,0,VALID,19.6142,VALID,6,VALID,0,
2007-10-20, 01:27:00,VALID,917.225,VALID,0,VALID,100,VALID,-0.0169808,VALID,19.6342,VALID,5,VALID,0,
2007-10-20, 01:28:00,VALID,917.216,VALID,0,VALID,100,VALID,-0.0169808,VALID,19.6469,VALID,6,VALID,0,
2007-10-20, 01:29:00,VALID,917.213,VALID,0,VALID,100,VALID,-0.0169808,VALID,19.6496,VALID,6,VALID,0,
2007-10-20, 01:30:00,VALID,917.2,VALID,0,VALID,100,VALID,-0.0849042,VALID,19.6571,VALID,6,VALID,0,
2007-10-20, 01:31:00,VALID,917.204,VALID,0,VALID,100,VALID,-0.0509425,VALID,19.6374,VALID,6,VALID,0,
2007-10-20, 01:32:00,VALID,917.19,VALID,0,VALID,100,VALID,-0.0849042,VALID,19.6437,VALID,6,VALID,0,
2007-10-20, 01:33:00,VALID,917.185,VALID,0,VALID,100,VALID,-0.0169808,VALID,19.6569,VALID,6,VALID,0,
2007-10-20, 01:34:00,VALID,917.177,VALID,0,VALID,100,VALID,-0.0169808,VALID,19.6437,VALID,6,VALID,0,
2007-10-20, 01:35:00,VALID,917.152,VALID,0,VALID,100,VALID,-0.0169808,VALID,19.6012,VALID,6,VALID,0,
2007-10-20, 01:36:00,VALID,917.136,VALID,0,VALID,100,VALID,-0.0339617,VALID,19.576,VALID,6,VALID,0,
2007-10-20, 01:37:00,VALID,917.103,VALID,0,VALID,100,VALID,0,VALID,19.5433,VALID,6,VALID,0,
2007-10-20, 01:38:00,VALID,917.086,VALID,0,VALID,100,VALID,-0.0169808,VALID,19.5333,VALID,6,VALID,0,
2007-10-20, 01:39:00,VALID,917.061,VALID,0,VALID,100,VALID,-0.0169808,VALID,19.5101,VALID,6,VALID,0,
2007-10-20, 01:40:00,VALID,917.047,VALID,0,VALID,100,VALID,-0.0169808,VALID,19.5109,VALID,6,VALID,0,
2007-10-20, 01:41:00,VALID,917.018,VALID,0,VALID,100,VALID,-0.0169808,VALID,19.4874,VALID,6,VALID,0,
2007-10-20, 01:42:00,VALID,917.006,VALID,0,VALID,100,VALID,0,VALID,19.4844,VALID,6,VALID,0,
2007-10-20, 01:43:00,VALID,916.988,VALID,0,VALID,100,VALID,-0.0339617,VALID,19.4812,VALID,6,VALID,0,
2007-10-20, 01:44:00,VALID,916.968,VALID,0,VALID,100,VALID,0,VALID,19.4812,VALID,6,VALID,0,
2007-10-20, 01:45:00,VALID,916.972,VALID,0,VALID,100,VALID,-0.0169808,VALID,19.452,VALID,6,VALID,0,
2007-10-20, 01:46:00,VALID,916.956,VALID,0,VALID,100,VALID,0,VALID,19.433,VALID,6,VALID,0,
2007-10-20, 01:47:00,VALID,916.947,VALID,0,VALID,100,VALID,-0.0169808,VALID,19.4103,VALID,6,VALID,0,
2007-10-20, 01:48:00,VALID,916.931,VALID,0,VALID,100,VALID,0,VALID,19.3908,VALID,6,VALID,0,
2007-10-20, 01:49:00,VALID,916.926,VALID,0,VALID,100,VALID,0,VALID,19.3774,VALID,6,VALID,0,
2007-10-20, 01:50:00,VALID,916.919,VALID,0,VALID,100,VALID,-0.0339617,VALID,19.3574,VALID,6,VALID,0,
2007-10-20, 01:51:00,VALID,916.891,VALID,0,VALID,100,VALID,-0.0169808,VALID,19.3776,VALID,6,VALID,0,
2007-10-20, 01:52:00,VALID,916.888,VALID,0,VALID,100,VALID,0,VALID,19.3869,VALID,6,VALID,0,
2007-10-20, 01:53:00,VALID,916.876,VALID,0,VALID,100,VALID,0,VALID,19.3809,VALID,9,VALID,0,
2007-10-20, 01:54:00,VALID,916.851,VALID,0,VALID,100,VALID,-0.0169808,VALID,19.3474,VALID,14,VALID,0,
2007-10-20, 01:55:00,VALID,916.838,VALID,0,VALID,100,VALID,-0.0169808,VALID,19.3382,VALID,33,VALID,0,
2007-10-20, 01:56:00,VALID,916.82,VALID,0,VALID,100,VALID,0,VALID,19.312,VALID,39,VALID,0.408249,
2007-10-20, 01:57:00,VALID,916.799,VALID,0,VALID,100,VALID,0,VALID,19.299,VALID,40,VALID,0.454241,
2007-10-20, 01:58:00,VALID,916.789,VALID,0,VALID,100,VALID,0,VALID,19.286,VALID,46,VALID,0.481712,
2007-10-20, 01:59:00,VALID,916.777,VALID,0,VALID,100,VALID,0,VALID,19.2796,VALID,46,VALID,0.362614,
2007-10-20, 02:00:00,VALID,916.76,VALID,0,VALID,100,VALID,0,VALID,19.2731,VALID,43,VALID,0.198518,
2007-10-20, 02:01:00,VALID,916.754,VALID,0,VALID,100,VALID,0,VALID,19.2923,VALID,43,VALID,0,
2007-10-20, 02:02:00,VALID,916.742,VALID,0,VALID,100,VALID,0,VALID,19.3058,VALID,43,VALID,0,
2007-10-20, 02:03:00,VALID,916.737,VALID,0,VALID,100,VALID,-0.0169808,VALID,19.2925,VALID,43,VALID,0,
2007-10-20, 02:04:00,VALID,916.73,VALID,0,VALID,100,VALID,-0.0339617,VALID,19.2928,VALID,43,VALID,0,
2007-10-20, 02:05:00,VALID,916.718,VALID,0,VALID,100,VALID,-0.0169808,VALID,19.289,VALID,43,VALID,0,
2007-10-20, 02:06:00,VALID,916.715,VALID,0,VALID,100,VALID,-0.0169808,VALID,19.3028,VALID,43,VALID,0,
2007-10-20, 02:07:00,VALID,916.711,VALID,0,VALID,100,VALID,-0.0169808,VALID,19.309,VALID,43,VALID,0,
2007-10-20, 02:08:00,VALID,916.707,VALID,0,VALID,100,VALID,0,VALID,19.319,VALID,43,VALID,0,
2007-10-20, 02:09:00,VALID,916.701,VALID,0,VALID,100,VALID,-0.0339617,VALID,19.3182,VALID,43,VALID,0,
2007-10-20, 02:10:00,VALID,916.701,VALID,0,VALID,100,VALID,0,VALID,19.3122,VALID,43,VALID,0,
2007-10-20, 02:11:00,VALID,916.696,VALID,0,VALID,100,VALID,0,VALID,19.2925,VALID,43,VALID,0,
2007-10-20, 02:12:00,VALID,916.685,VALID,0,VALID,100,VALID,0,VALID,19.2631,VALID,43,VALID,0,
2007-10-20, 02:13:00,VALID,916.684,VALID,0,VALID,100,VALID,-0.0169808,VALID,19.2566,VALID,43,VALID,0,
2007-10-20, 02:14:00,VALID,916.679,VALID,0,VALID,100,VALID,0,VALID,19.2703,VALID,43,VALID,0,
2007-10-20, 02:15:00,VALID,916.658,VALID,0,VALID,100,VALID,0,VALID,19.286,VALID,43,VALID,0,
2007-10-20, 02:16:00,VALID,916.658,VALID,0,VALID,100,VALID,-0.0169808,VALID,19.312,VALID,43,VALID,0,
2007-10-20, 02:17:00,VALID,916.643,VALID,0,VALID,100,VALID,0,VALID,19.315,VALID,43,VALID,0,
2007-10-20, 02:18:00,VALID,916.634,VALID,0,VALID,100,VALID,-0.0169808,VALID,19.312,VALID,43,VALID,0,
2007-10-20, 02:19:00,VALID,916.623,VALID,0,VALID,100,VALID,-0.0169808,VALID,19.3315,VALID,43,VALID,0,
2007-10-20, 02:20:00,VALID,916.603,VALID,0,VALID,100,VALID,-0.0509425,VALID,19.335,VALID,43,VALID,0,
2007-10-20, 02:21:00,VALID,916.582,VALID,0,VALID,100,VALID,-0.0169808,VALID,19.3255,VALID,43,VALID,0,
2007-10-20, 02:22:00,VALID,916.574,VALID,0,VALID,100,VALID,-0.0169808,VALID,19.3122,VALID,43,VALID,0,
2007-10-20, 02:23:00,VALID,916.563,VALID,0,VALID,100,VALID,-0.0339617,VALID,19.289,VALID,43,VALID,0,
2007-10-20, 02:24:00,VALID,916.537,VALID,0,VALID,100,VALID,0,VALID,19.2796,VALID,43,VALID,0,
2007-10-20, 02:25:00,VALID,916.515,VALID,0,VALID,100,VALID,-0.0509425,VALID,19.2808,VALID,43,VALID,0,
2007-10-20, 02:26:00,VALID,916.51,VALID,0,VALID,100,VALID,0,VALID,19.2668,VALID,43,VALID,0,
2007-10-20, 02:27:00,VALID,916.496,VALID,0,VALID,100,VALID,-0.0339617,VALID,19.2476,VALID,43,VALID,0,
2007-10-20, 02:28:00,VALID,916.476,VALID,0,VALID,100,VALID,-0.0509425,VALID,19.2251,VALID,43,VALID,0,
2007-10-20, 02:29:00,VALID,916.462,VALID,0,VALID,100,VALID,0,VALID,19.2277,VALID,43,VALID,0,
2007-10-20, 02:30:00,VALID,916.454,VALID,0,VALID,100,VALID,0,VALID,19.2379,VALID,61,VALID,0,
2007-10-20, 02:31:00,VALID,916.451,VALID,0,VALID,100,VALID,-0.0339617,VALID,19.2341,VALID,91,VALID,0.184524,
2007-10-20, 02:32:00,VALID,916.433,VALID,0,VALID,100,VALID,-0.0169808,VALID,19.303,VALID,94,VALID,0.825036,
2007-10-20, 02:33:00,VALID,916.437,VALID,0,VALID,100,VALID,-0.0339617,VALID,19.3507,VALID,104,VALID,0.347747,
2007-10-20, 02:34:00,VALID,916.426,VALID,0,VALID,100,VALID,0,VALID,19.3579,VALID,104,VALID,0,
2007-10-20, 02:35:00,VALID,916.402,VALID,0,VALID,100,VALID,0,VALID,19.3479,VALID,104,VALID,0,
2007-10-20, 02:36:00,VALID,916.387,VALID,0,VALID,100,VALID,0,VALID,19.3544,VALID,104,VALID,0,
2007-10-20, 02:37:00,VALID,916.362,VALID,0,VALID,100,VALID,-0.0169808,VALID,19.3739,VALID,104,VALID,0,
2007-10-20, 02:38:00,VALID,916.347,VALID,0,VALID,100,VALID,0,VALID,19.3609,VALID,104,VALID,0,
2007-10-20, 02:39:00,VALID,916.336,VALID,0,VALID,100,VALID,0,VALID,19.3512,VALID,104,VALID,0,
2007-10-20, 02:40:00,VALID,916.328,VALID,0,VALID,100,VALID,0.0169808,VALID,19.3412,VALID,104,VALID,0,
2007-10-20, 02:41:00,VALID,916.308,VALID,0,VALID,100,VALID,0,VALID,19.335,VALID,104,VALID,0,
2007-10-20, 02:42:00,VALID,916.298,VALID,0,VALID,100,VALID,0.0339617,VALID,19.3118,VALID,104,VALID,0,
2007-10-20, 02:43:00,VALID,916.297,VALID,0,VALID,100,VALID,-0.0169808,VALID,19.2826,VALID,104,VALID,0,
2007-10-20, 02:44:00,VALID,916.28,VALID,0,VALID,100,VALID,0,VALID,19.2763,VALID,107,VALID,0.196057,
2007-10-20, 02:45:00,VALID,916.276,VALID,0,VALID,100,VALID,0,VALID,19.289,VALID,114,VALID,0.649148,
2007-10-20, 02:46:00,VALID,916.27,VALID,0,VALID,100,VALID,0,VALID,19.2728,VALID,120,VALID,0.549733,
2007-10-20, 02:47:00,VALID,916.267,VALID,0,VALID,100,VALID,0.0169808,VALID,19.2631,VALID,121,VALID,0.401526,
2007-10-20, 02:48:00,VALID,916.256,VALID,0,VALID,100,VALID,0,VALID,19.2436,VALID,136,VALID,0.595274,
2007-10-20, 02:49:00,VALID,916.251,VALID,0,VALID,100,VALID,-0.0169808,VALID,19.2047,VALID,157,VALID,0.473633,
2007-10-20, 02:50:00,VALID,916.244,VALID,0,VALID,100,VALID,0.0169808,VALID,19.1758,VALID,164,VALID,0.546131,
2007-10-20, 02:51:00,VALID,916.235,VALID,0,VALID,100,VALID,0,VALID,19.1595,VALID,178,VALID,0.607701,
2007-10-20, 02:52:00,VALID,916.237,VALID,0,VALID,100,VALID,0,VALID,19.1433,VALID,185,VALID,0.527439,
2007-10-20, 02:53:00,VALID,916.243,VALID,0,VALID,100,VALID,0,VALID,19.1176,VALID,187,VALID,0.448289,
2007-10-20, 02:54:00,VALID,916.229,VALID,0,VALID,100,VALID,0,VALID,19.1011,VALID,189,VALID,0.32066,
2007-10-20, 02:55:00,VALID,916.212,VALID,0,VALID,100,VALID,0.0169808,VALID,19.1009,VALID,189,VALID,0.0909598,
2007-10-20, 02:56:00,VALID,916.201,VALID,0,VALID,100,VALID,0,VALID,19.0979,VALID,189,VALID,0,
2007-10-20, 02:57:00,VALID,916.193,VALID,0,VALID,100,VALID,0,VALID,19.0849,VALID,189,VALID,0,
2007-10-20, 02:58:00,VALID,916.202,VALID,0,VALID,100,VALID,0,VALID,19.0887,VALID,189,VALID,0,
2007-10-20, 02:59:00,VALID,916.204,VALID,0,VALID,100,VALID,0.0169808,VALID,19.0819,VALID,189,VALID,0,
2007-10-20, 03:00:00,VALID,916.209,VALID,0,VALID,100,VALID,0,VALID,19.075,VALID,189,VALID,0.0405506,
2007-10-20, 03:01:00,VALID,916.199,VALID,0,VALID,100,VALID,0.0169808,VALID,19.075,VALID,189,VALID,0.298328,
2007-10-20, 03:02:00,VALID,916.202,VALID,0,VALID,100,VALID,0,VALID,19.0817,VALID,189,VALID,0.584028,
2007-10-20, 03:03:00,VALID,916.201,VALID,0,VALID,100,VALID,0,VALID,19.0687,VALID,192,VALID,0.761161,
2007-10-20, 03:04:00,VALID,916.207,VALID,0,VALID,100,VALID,-0.0509425,VALID,19.0625,VALID,194,VALID,0.603468,
2007-10-20, 03:05:00,VALID,916.193,VALID,0,VALID,100,VALID,0,VALID,19.0495,VALID,194,VALID,0.740552,
2007-10-20, 03:06:00,VALID,916.193,VALID,0,VALID,100,VALID,-0.0339617,VALID,19.0298,VALID,194,VALID,0.438086,
2007-10-20, 03:07:00,VALID,916.202,VALID,0,VALID,100,VALID,0,VALID,19.0201,VALID,193,VALID,0.450586,
2007-10-20, 03:08:00,VALID,916.187,VALID,0,VALID,100,VALID,-0.0169808,VALID,19.0133,VALID,190,VALID,0.555596,
2007-10-20, 03:09:00,VALID,916.197,VALID,0,VALID,100,VALID,-0.0169808,VALID,19.0103,VALID,190,VALID,0.808308,
2007-10-20, 03:10:00,VALID,916.198,VALID,0,VALID,100,VALID,0,VALID,19.0265,VALID,192,VALID,0.347124,
2007-10-20, 03:11:00,VALID,916.188,VALID,0,VALID,100,VALID,0,VALID,19.0168,VALID,210,VALID,0.621548,
2007-10-20, 03:12:00,VALID,916.204,VALID,0,VALID,100,VALID,0,VALID,19.0363,VALID,206,VALID,0.739099,
2007-10-20, 03:13:00,VALID,916.205,VALID,0,VALID,100,VALID,0,VALID,19.036,VALID,207,VALID,0.727896,
2007-10-20, 03:14:00,VALID,916.215,VALID,0,VALID,100,VALID,0,VALID,19.0425,VALID,204,VALID,0.565476,
2007-10-20, 03:15:00,VALID,916.21,VALID,0,VALID,100,VALID,0,VALID,19.062,VALID,206,VALID,0.685369,
2007-10-20, 03:16:00,VALID,916.212,VALID,0,VALID,100,VALID,-0.0169808,VALID,19.0622,VALID,211,VALID,0.507457,
2007-10-20, 03:17:00,VALID,916.224,VALID,0,VALID,100,VALID,-0.0169808,VALID,19.0789,VALID,201,VALID,0.549162,
2007-10-20, 03:18:00,VALID,916.228,VALID,0,VALID,100,VALID,-0.0339617,VALID,19.0919,VALID,197,VALID,0.129836,
2007-10-20, 03:19:00,VALID,916.25,VALID,0,VALID,100,VALID,0,VALID,19.1049,VALID,197,VALID,0.158854,
2007-10-20, 03:20:00,VALID,916.244,VALID,0,VALID,100,VALID,0,VALID,19.1014,VALID,197,VALID,0.0263889,
2007-10-20, 03:21:00,VALID,916.264,VALID,0,VALID,100,VALID,-0.0169808,VALID,19.1049,VALID,197,VALID,0,
2007-10-20, 03:22:00,VALID,916.278,VALID,0,VALID,100,VALID,0.0169808,VALID,19.1139,VALID,197,VALID,0,
2007-10-20, 03:23:00,VALID,916.291,VALID,0,VALID,100,VALID,0.0509425,VALID,19.1139,VALID,197,VALID,0,
2007-10-20, 03:24:00,VALID,916.301,VALID,0,VALID,100,VALID,0.0169808,VALID,19.1106,VALID,197,VALID,0,
2007-10-20, 03:25:00,VALID,916.306,VALID,0,VALID,100,VALID,0,VALID,19.1171,VALID,197,VALID,0,
2007-10-20, 03:26:00,VALID,916.307,VALID,0,VALID,100,VALID,0,VALID,19.1269,VALID,197,VALID,0,
2007-10-20, 03:27:00,VALID,916.314,VALID,0,VALID,100,VALID,0,VALID,19.1333,VALID,197,VALID,0,
2007-10-20, 03:28:00,VALID,916.319,VALID,0,VALID,100,VALID,0,VALID,19.1498,VALID,197,VALID,0,
2007-10-20, 03:29:00,VALID,916.334,VALID,0,VALID,100,VALID,0,VALID,19.1561,VALID,197,VALID,0,
2007-10-20, 03:30:00,VALID,916.338,VALID,0,VALID,100,VALID,0.0169808,VALID,19.1561,VALID,197,VALID,0,
2007-10-20, 03:31:00,VALID,916.347,VALID,0,VALID,100,VALID,0.0169808,VALID,19.1792,VALID,197,VALID,0,
2007-10-20, 03:32:00,VALID,916.364,VALID,0,VALID,100,VALID,0,VALID,19.2017,VALID,197,VALID,0,
2007-10-20, 03:33:00,VALID,916.378,VALID,0,VALID,100,VALID,0.0679233,VALID,19.2047,VALID,197,VALID,0,
2007-10-20, 03:34:00,VALID,916.381,VALID,0,VALID,100,VALID,0,VALID,19.2012,VALID,197,VALID,0,
2007-10-20, 03:35:00,VALID,916.395,VALID,0,VALID,100,VALID,0.0509425,VALID,19.2112,VALID,197,VALID,0,
2007-10-20, 03:36:00,VALID,916.397,VALID,0,VALID,100,VALID,0.0169808,VALID,19.2172,VALID,197,VALID,0,
2007-10-20, 03:37:00,VALID,916.394,VALID,0,VALID,100,VALID,0.0169808,VALID,19.2075,VALID,197,VALID,0,
2007-10-20, 03:38:00,VALID,916.391,VALID,0,VALID,100,VALID,0,VALID,19.2042,VALID,197,VALID,0,
2007-10-20, 03:39:00,VALID,916.407,VALID,0,VALID,100,VALID,0.0339617,VALID,19.208,VALID,197,VALID,0,
2007-10-20, 03:40:00,VALID,916.391,VALID,0,VALID,100,VALID,0,VALID,19.2047,VALID,197,VALID,0,
2007-10-20, 03:41:00,VALID,916.388,VALID,0,VALID,100,VALID,0,VALID,19.2015,VALID,197,VALID,0,
2007-10-20, 03:42:00,VALID,916.408,VALID,0,VALID,100,VALID,0.0169808,VALID,19.1982,VALID,197,VALID,0,
2007-10-20, 03:43:00,VALID,916.405,VALID,0,VALID,100,VALID,0,VALID,19.195,VALID,197,VALID,0,
2007-10-20, 03:44:00,VALID,916.417,VALID,0,VALID,100,VALID,0,VALID,19.2015,VALID,197,VALID,0,
2007-10-20, 03:45:00,VALID,916.431,VALID,0,VALID,100,VALID,-0.0169808,VALID,19.2082,VALID,197,VALID,0,
2007-10-20, 03:46:00,VALID,916.45,VALID,0,VALID,100,VALID,0,VALID,19.2274,VALID,197,VALID,0,
2007-10-20, 03:47:00,VALID,916.454,VALID,0,VALID,100,VALID,0,VALID,19.2242,VALID,197,VALID,0,
2007-10-20, 03:48:00,VALID,916.44,VALID,0,VALID,100,VALID,-0.0169808,VALID,19.208,VALID,197,VALID,0,
2007-10-20, 03:49:00,VALID,916.445,VALID,0,VALID,100,VALID,0,VALID,19.1723,VALID,197,VALID,0,
2007-10-20, 03:50:00,VALID,916.433,VALID,0,VALID,100,VALID,0.0339617,VALID,19.1333,VALID,197,VALID,0,
2007-10-20, 03:51:00,VALID,916.43,VALID,0,VALID,100,VALID,0.0339617,VALID,19.1104,VALID,197,VALID,0,
2007-10-20, 03:52:00,VALID,916.412,VALID,0,VALID,100,VALID,0,VALID,19.0907,VALID,197,VALID,0,
2007-10-20, 03:53:00,VALID,916.417,VALID,0,VALID,100,VALID,0,VALID,19.0717,VALID,197,VALID,0,